Valdosta Regional, GA

3:32 AM EDT on April 24, 2017 (GMT -0400)
Valdosta Regional

Weather History for KVLD - January, 2013

Change the Weather History Date:

Thursday, January 17, 2013

  Actual Average Record
Temperature  
Mean Temperature 56 °F 50 °F  
Max Temperature 69 °F 62 °F 79 °F (2017)
Min Temperature 43 °F 38 °F 32 °F (2015)
Degree Days  
Heating Degree Days 9 15  
Month to date heating degree days 89 255  
Since 1 July heating degree days 530 868  
Growing Degree Days 6 (Base 50)    
Moisture  
Dew Point 49 °F    
Average Humidity 63    
Maximum Humidity 87    
Minimum Humidity 39    
Precipitation  
Precipitation 0.04 in 0.10 in 1.13 in (2016)
Month to date precipitation 0.22 2.74  
Year to date precipitation 0.22 2.74  
Sea Level Pressure  
Sea Level Pressure 30.02 in    
Wind  
Wind Speed 8 mph (SW)    
Max Wind Speed 15 mph    
Max Gust Speed 31 mph    
Visibility 9 miles    
Events Rain    
T = Trace of Precipitation, MM = Missing Value Source: NWS Daily Summary

Daily Weather History Graph

Daily Weather History Graph

Search for Another Location

Airport or City:

Trip Planner

Search our weather history database for the weather conditions in past years. The results will help you decide how hot, cold, wet, or windy it might be!

Date:

Astronomy

Jan. 17, 2013 Rise Set
Actual Time 7:30 AM EST 5:56 PM EST
Civil Twilight 7:04 AM EST 6:22 PM EST
Nautical Twilight 6:35 AM EST 6:51 PM EST
Astronomical Twilight 6:06 AM EST 7:20 PM EST
Moon 11:06 AM EST (1/17) No Moon Set
Length of Visible Light 11h 17m
Length of Day
10h 25m
Waxing Crescent, 37% of the Moon is Illuminated
Jan 17
Waxing Crescent
Jan 18
First Quarter
Jan 26
Full
Feb 3
Last Quarter
Feb 10
New

Hourly Weather History & Observations

Time (EST) Temp. Windchill Dew Point Humidity Pressure Visibility Wind Dir Wind Speed Gust Speed Precip Events Conditions
12:02 AM 64.4 °F - 60.8 °F 88% 29.99 in 3.0 mi South 4.6 mph - N/A   Partly Cloudy
12:53 AM 66.0 °F - 62.1 °F 87% 30.01 in 9.0 mi South 6.9 mph - N/A   Scattered Clouds
1:53 AM 66.0 °F - 61.0 °F 84% 30.00 in 10.0 mi South 5.8 mph - N/A   Clear
2:53 AM 66.0 °F - 61.0 °F 84% 29.99 in 10.0 mi South 8.1 mph - N/A   Mostly Cloudy
3:53 AM 66.9 °F - 61.0 °F 81% 29.97 in 10.0 mi SSW 5.8 mph - N/A   Overcast
4:17 AM 66.2 °F - 60.8 °F 83% 29.95 in 10.0 mi South 4.6 mph - N/A   Overcast
4:37 AM 66.2 °F - 60.8 °F 83% 29.94 in 10.0 mi South 6.9 mph - N/A   Overcast
4:53 AM 66.0 °F - 61.0 °F 84% 29.95 in 10.0 mi South 5.8 mph - N/A   Mostly Cloudy
5:10 AM 66.2 °F - 62.6 °F 88% 29.93 in 10.0 mi South 6.9 mph - N/A   Overcast
5:19 AM 68.0 °F - 62.6 °F 83% 29.94 in 10.0 mi South 6.9 mph - N/A   Mostly Cloudy
5:32 AM 68.0 °F - 62.6 °F 83% 29.93 in 10.0 mi South 8.1 mph - N/A   Overcast
7:53 AM 68.0 °F - 64.0 °F 87% 29.96 in 10.0 mi SSW 5.8 mph - 0.00 in   Overcast
8:53 AM 69.1 °F - 63.0 °F 81% 29.96 in 10.0 mi Variable 6.9 mph - 0.00 in   Overcast
9:23 AM 64.4 °F - 60.8 °F 88% 29.96 in 2.0 mi West 8.1 mph 20.7 mph 0.01 in Rain Light Rain
9:40 AM 62.6 °F - 57.2 °F 82% 29.97 in 3.0 mi WSW 8.1 mph 17.3 mph 0.02 in Rain Light Rain
9:53 AM 62.1 °F - 57.0 °F 84% 29.99 in 7.0 mi WSW 8.1 mph 17.3 mph 0.02 in   Overcast
10:53 AM 59.0 °F - 53.1 °F 81% 30.01 in 1.0 mi West 9.2 mph 26.5 mph 0.00 in Rain Light Rain
11:04 AM 57.2 °F - 53.6 °F 88% 29.99 in 2.0 mi WSW 8.1 mph 20.7 mph 0.01 in Rain Light Rain
11:50 AM 55.4 °F - 48.2 °F 77% 30.00 in 7.0 mi WSW 10.4 mph 19.6 mph 0.02 in   Overcast
11:53 AM 55.0 °F - 48.9 °F 80% 30.02 in 7.0 mi Variable 6.9 mph 19.6 mph 0.02 in   Overcast
12:00 PM 55.4 °F - 48.2 °F 77% 29.99 in 10.0 mi WSW 8.1 mph 17.3 mph N/A   Overcast
12:53 PM 54.0 °F - 45.0 °F 72% 30.01 in 10.0 mi Variable 6.9 mph 19.6 mph N/A   Overcast
1:32 PM 57.2 °F - 44.6 °F 63% 29.96 in 10.0 mi WSW 11.5 mph 25.3 mph N/A   Overcast
1:53 PM 59.0 °F - 42.1 °F 53% 29.97 in 10.0 mi WSW 12.7 mph 26.5 mph N/A   Mostly Cloudy
2:53 PM 61.0 °F - 36.0 °F 39% 29.96 in 10.0 mi WSW 13.8 mph 26.5 mph N/A   Scattered Clouds
3:53 PM 60.1 °F - 36.0 °F 41% 29.97 in 10.0 mi West 9.2 mph 21.9 mph N/A   Scattered Clouds
4:53 PM 57.0 °F - 36.0 °F 45% 30.00 in 10.0 mi WNW 8.1 mph 19.6 mph N/A   Clear
5:53 PM 50.0 °F - 34.0 °F 54% 30.05 in 10.0 mi WNW 11.5 mph 21.9 mph N/A   Clear
6:53 PM 46.0 °F 41.9 °F 32.0 °F 58% 30.10 in 10.0 mi WNW 8.1 mph 18.4 mph N/A   Mostly Cloudy
7:44 PM 44.6 °F 38.8 °F 30.2 °F 57% 30.12 in 10.0 mi NW 11.5 mph 24.2 mph N/A   Overcast
7:53 PM 44.1 °F 37.4 °F 30.9 °F 60% 30.15 in 10.0 mi WNW 13.8 mph 26.5 mph N/A   Overcast
8:53 PM 44.1 °F 39.0 °F 30.0 °F 58% 30.17 in 10.0 mi NW 9.2 mph 23.0 mph N/A   Overcast
9:53 PM 44.1 °F 39.5 °F 30.9 °F 60% 30.20 in 10.0 mi NW 8.1 mph - N/A   Overcast
10:53 PM 44.1 °F 42.5 °F 32.0 °F 63% 30.21 in 10.0 mi Variable 3.5 mph - N/A   Overcast
11:53 PM 45.0 °F - 33.1 °F 63% 30.22 in 10.0 mi Calm Calm - N/A   Overcast